Location: Allen Lane School
(37.8198°N, 89.7382°W)
Time: 15:12:12
(UTC+00:00)

CZ-2D R/B - Pass Details

Date: 08 December 2021
Orbit: 520 x 535 km, 97.4° (Epoch: 19 January)

Event Time Altitude Azimuth Distance (km) Brightness Sun altitude
Rises 23:07:49 0° 140° (SE) 2,659 6.7 -5.8°
Reaches altitude 10° 23:10:10 10° 127° (SE) 1,771 5.6 -6.2°
Maximum altitude 23:13:20 25° 71° (ENE) 1,084 4.2 -6.8°
Drops below altitude 10° 23:16:31 10° 15° (NNE) 1,774 5.6 -7.4°
Sets 23:18:52 0° 2° (N) 2,664 6.6 -7.8°
